CZ-3B DEB, 40843

Orbit data source: Space-Track

CZ-3B DEB, 40843 is space debris in HEO originally from a launch on Mon, 19 Dec 2011 UTC launched from the Xichang Space Center, China (XSC). Debris objects in space refer to the collection of defunct objects orbiting the Earth. Examples of debris include non-operational satellites, rocket bodies, and fragments generated from explosions, collisions, or faulty payload assembly.

Loading next visibility...
Identifier
40843, 2011-077Y
Orbit
HEO
Country
Flag of CNCN / PRC
Related business
Manufacturer
CALT
Mission
Spacecraft
Bus & Motor
Unknown
Mass
Unknown
Launch date (UTC)
2011-12-19 (14 years ago)
Launch vehicle
Unknown
Launch site
Xichang Space Center, China (XSC)
Object type
Payload
Rocket body
Debris
Shape & HBR
Unknown shape, 0.1 m
Radar Cross Section
Medium (>0.1 m² and <1 m²)

Expand to show TLE details & history
Last TLE update: 1 week ago

TLE from 1 week ago
0 CZ-3B DEB
1 40843U 11077Y   26142.98414948  .00000403  00000-0  20259-2 0  9994
2 40843  21.9843 134.1989 7173267 194.4186 122.0524  2.30237440 93877
Epoch: 2026-05-22T23:37Z
TLE epoch observation values (Epoch: 2026-05-22T23:37:10.515Z)
Latitude
-0.00016°
Longitude
-100.74452°
Altitude
32,133.975 km
Speed
2.061 km/s
True Right ascension
08h 56m 37s
True Declination
0° 00' 01"
Sunlit
Object was in daylight at epoch
Visualization orbit readout
Latitude
Unknown
Longitude
Unknown
Altitude
Unknown
Speed
Unknown
Apparent Right ascension
Unknown
Apparent Declination
Unknown
Sunlit
N/A
Visualization observer readout
Local Sidereal Time
14:42:37
Azimuth
Unknown
Elevation
Unknown
Doppler factor
Unknown
Orbital elements
Apogee altitude
35,233.407 km
Perigee altitude
471.155 km
Semi-major axis
24,230.418 km
Eccentricity
0.71733
Inclination
21.9843°
RAAN
134.1989°
Arg. of periapsis
194.4186°
True anomaly
165.59345°
Mean anomaly
122.0524°
Eccentric anomaly
145.39413°
Mean motion
0.57544 °/min
Orbital period
625.61 mins
BSTAR
0.0020259
Loading maneuver chart data...
Computing Atmospheric mass density...
Loading historical data...
Loading historical data...
Loading historical data...
Loading historical data...
Loading historical data...
Loading historical data...
Loading historical data...

Documentation

Showing up to 5 results
|